Printer-friendly version

IAU Minor Planet Center

Minor Planet Center

MPEC 2007-L54 : 2007 LC15

The following Minor Planet Electronic Circular may be linked-to from your own Web pages, but must not otherwise be redistributed electronically.


Read MPEC 2007-L53 Read MPEC 2007-L55


M.P.E.C. 2007-L54                                Issued 2007 June 14, 10:53 UT

     The Minor Planet Electronic Circulars contain information on unusual
         minor planets and routine data on comets.  They are published
   on behalf of Commission 20 of the International Astronomical Union by the
          Minor Planet Center, Smithsonian Astrophysical Observatory,
                          Cambridge, MA 02138, U.S.A.

             Prepared using the Tamkin Foundation Computer Network

                              MPC@CFA.HARVARD.EDU
          URL http://www.cfa.harvard.edu/iau/mpc.html  ISSN 1523-6714

                                   2007 LC15

Observations:
     K07L15C* C2007 06 11.18346 08 59 41.92 +42 20 10.2          20.7 V EL054G96
     K07L15C  C2007 06 11.18968 08 59 45.42 +42 20 05.3          20.6 V EL054G96
     K07L15C  C2007 06 11.19581 08 59 48.87 +42 20 01.1          20.7 V EL054G96
     K07L15C  C2007 06 11.20189 08 59 52.29 +42 19 57.3          20.7 V EL054G96
     K07L15C  C2007 06 13.16919 09 17 56.67 +41 53 37.6                 EL054291
     K07L15C HC2007 06 13.17916 09 18 02.09 +41 53 27.8                 EL054291
     K07L15C tC2007 06 14.17786 09 26 56.42 +41 36 12.8          20.9 V EL054291
     K07L15C tC2007 06 14.18297 09 26 59.27 +41 36 07.5          21.3 V EL054291
     K07L15C tC2007 06 14.18787 09 27 01.70 +41 36 03.2          20.8 V EL054291

Observer details:
291 LPL/Spacewatch II.  Observer T. H. Bressi.  1.8-m f/2.7 reflector + CCD.
G96 Mt. Lemmon Survey.  Observers S. M. Larson, A. Boattini.  Measurers
    E. C. Beshore, A. Boattini, G. J. Garradd, A. R. Gibbs, A. D. Grauer,
    R. E. Hill, R. A. Kowalski, S. M. Larson, R. H. McNaught.  1.5-m reflector
    + CCD.

Orbital elements:
2007 LC15                                                Earth MOID = 0.2914 AU
Epoch 2007 Apr. 10.0 TT = JDT 2454200.5                 MPC
M 343.47138              (2000.0)            P               Q
n   0.63790568     Peri.  341.24816     -0.00583948     -0.89038886
a   1.3364880      Node   106.96351     +0.96751804     -0.12007008
e   0.7430577      Incl.   28.41587     +0.25273453     +0.43907956
P   1.55           H   18.8           G   0.15           U   9
Residuals in seconds of arc
070611 G96  0.2-  0.5+    070611 G96  0.2+  0.0     070614 291  0.5-  0.8-
070611 G96  0.1-  0.2-    070613 291  0.2-  0.0     070614 291  1.2+  0.3-
070611 G96  0.1+  0.3-    070613 291  0.2+  0.1+    070614 291  0.6-  1.0+

Ephemeris:
2007 LC15                a,e,i = 1.34, 0.74, 28                  q = 0.3434
Date    TT    R. A. (2000) Decl.     Delta      r     Elong.  Phase     V
2007 06 09    08 38.94   +42 36.4    0.969    0.807    47.9    69.0    20.7
2007 06 19    10 07.07   +39 42.6    1.009    0.955    56.3    62.2    20.9
2007 06 29    11 14.41   +34 07.3    1.095    1.092    62.2    55.4    21.2
2007 07 09    12 03.86   +27 53.2    1.213    1.218    65.5    49.4    21.5
2007 07 19    12 41.41   +21 58.9    1.353    1.334    66.8    44.4    21.8
2007 07 29    13 11.51   +16 42.8    1.507    1.440    66.3    40.2    22.1

Kyle E. Smalley              (C) Copyright 2007 MPC           M.P.E.C. 2007-L54

Read MPEC 2007-L53 Read MPEC 2007-L55


Our Web policy. Index to the CBAT/MPC/ICQ pages.


Valid HTML 4.01!